Location: Saint-Palais-sur-Mer
(45.6429°N, 1.0859°W)
Time: 00:51:03
(UTC+01:00)

Tiros 1 despin weight - Pass Details

Date: 15 February 2026
Orbit: 556 x 593 km, 48.2° (Epoch: 13 March)

Event Time Altitude Azimuth Distance (km) Brightness Sun altitude
Rises 19:38:58 0° 274° (W) 2,731 ? -12.4°
Reaches altitude 10° 19:41:14 10° 278° (W) 1,837 ? -12.8°
Maximum altitude 19:45:23 60° 359° (N) 640 ? -13.6°
Enters shadow 19:47:52 23° 73° (ENE) 1,214 ? -14.0°
Drops below altitude 10° 19:49:33 10° 79° (E) 1,844 - -14.3°
Sets 19:51:50 0° 84° (E) 2,743 - -14.7°
